FM-5

Last updated on Tue Sep 22 2026 00:03:11 GMT+0000 (Coordinated Universal Time)

1 35493U 09034A 26264.40365219 -.00000204 00000+0 00000+0 0 9995 2 35493 0.0361 263.2015 0000704 171.2699 344.9982 1.00271230 47603
UTC large
Height (km)
Speed (km/s)
/
Latitude / Longitude
Inclination (degrees)
Orbital Period (minutes)
Azimuth
Elevation
Range (km)
Doppler Factor

Next 0 passes for location: London (51.5072 / 0.1276)

No passes found over London.
FM-5